,,Stat5,,Stat1,,Stat2,,Stat3,,Stat4,,Wind1,,Wind1,
time,status,PA1M_AVG,status,PR1M_SUM,status,RH1M_AVG,status,SR1M_AVG,status,TA1M_AVG,status,W1dAve1m,status,W1sAve1m,
2003-01-15, 00:00:00,VALID,920.054,VALID,0,VALID,98.0394,VALID,0,VALID,20.3788,VALID,41,VALID,0.773828,
2003-01-15, 00:01:00,VALID,920.047,VALID,0,VALID,98.2607,VALID,-0.0509425,VALID,20.3855,VALID,44,VALID,0.745777,
2003-01-15, 00:02:00,VALID,920.051,VALID,0,VALID,98.3103,VALID,-0.0509425,VALID,20.3696,VALID,43,VALID,0.78196,
2003-01-15, 00:03:00,VALID,920.041,VALID,0,VALID,98.3739,VALID,-0.0339617,VALID,20.3664,VALID,42,VALID,0.709418,
2003-01-15, 00:04:00,VALID,920.022,VALID,0,VALID,98.4832,VALID,-0.0509425,VALID,20.3529,VALID,50,VALID,0.629366,
2003-01-15, 00:05:00,VALID,920.017,VALID,0,VALID,98.3891,VALID,-0.0339617,VALID,20.3432,VALID,60,VALID,0.866951,
2003-01-15, 00:06:00,VALID,919.997,VALID,0,VALID,98.4286,VALID,-0.0169808,VALID,20.3074,VALID,60,VALID,0.50803,
2003-01-15, 00:07:00,VALID,919.985,VALID,0,VALID,98.5366,VALID,-0.0169808,VALID,20.2945,VALID,55,VALID,0.616741,
2003-01-15, 00:08:00,VALID,919.977,VALID,0,VALID,98.5913,VALID,-0.0339617,VALID,20.3052,VALID,57,VALID,0.508301,
2003-01-15, 00:09:00,VALID,919.98,VALID,0,VALID,98.6422,VALID,-0.0169808,VALID,20.2851,VALID,65,VALID,0.355035,
2003-01-15, 00:10:00,VALID,919.975,VALID,0,VALID,98.5926,VALID,-0.0169808,VALID,20.2856,VALID,95,VALID,0.472545,
2003-01-15, 00:11:00,VALID,919.981,VALID,0,VALID,98.5862,VALID,-0.0169808,VALID,20.2498,VALID,93,VALID,0.489583,
2003-01-15, 00:12:00,VALID,919.978,VALID,0,VALID,98.6256,VALID,-0.0509425,VALID,20.2371,VALID,95,VALID,0.498481,
2003-01-15, 00:13:00,VALID,919.978,VALID,0,VALID,98.66,VALID,-0.0509425,VALID,20.208,VALID,105,VALID,0.643973,
2003-01-15, 00:14:00,VALID,919.96,VALID,0,VALID,98.7147,VALID,-0.0509425,VALID,20.1986,VALID,104,VALID,0.68335,
2003-01-15, 00:15:00,VALID,919.962,VALID,0,VALID,98.721,VALID,-0.0339617,VALID,20.1889,VALID,103,VALID,0.6875,
2003-01-15, 00:16:00,VALID,919.958,VALID,0,VALID,98.7782,VALID,-0.0509425,VALID,20.1658,VALID,100,VALID,0.59933,
2003-01-15, 00:17:00,VALID,919.959,VALID,0,VALID,98.8393,VALID,0,VALID,20.159,VALID,110,VALID,0.32197,
2003-01-15, 00:18:00,VALID,919.946,VALID,0,VALID,98.9003,VALID,-0.0339617,VALID,20.1789,VALID,100,VALID,0.442925,
2003-01-15, 00:19:00,VALID,919.952,VALID,0,VALID,98.9308,VALID,-0.0339617,VALID,20.1787,VALID,90,VALID,0.500893,
2003-01-15, 00:20:00,VALID,919.936,VALID,0,VALID,98.9448,VALID,-0.0679233,VALID,20.1819,VALID,75,VALID,0.336426,
2003-01-15, 00:21:00,VALID,919.945,VALID,0,VALID,98.9728,VALID,-0.0169808,VALID,20.1846,VALID,75,VALID,0.113715,
2003-01-15, 00:22:00,VALID,919.954,VALID,0,VALID,99.0275,VALID,-0.0339617,VALID,20.2209,VALID,75,VALID,0.0386161,
2003-01-15, 00:23:00,VALID,919.947,VALID,0,VALID,99.002,VALID,0,VALID,20.2239,VALID,75,VALID,0.047822,
2003-01-15, 00:24:00,VALID,919.944,VALID,0,VALID,98.997,VALID,-0.0169808,VALID,20.2336,VALID,75,VALID,0,
2003-01-15, 00:25:00,VALID,919.952,VALID,0,VALID,99.0198,VALID,0,VALID,20.2403,VALID,75,VALID,0,
2003-01-15, 00:26:00,VALID,919.962,VALID,0,VALID,99.0733,VALID,-0.0169808,VALID,20.2764,VALID,75,VALID,0.000976563,
2003-01-15, 00:27:00,VALID,919.95,VALID,0,VALID,99.0529,VALID,0,VALID,20.2726,VALID,75,VALID,0,
2003-01-15, 00:28:00,VALID,919.959,VALID,0,VALID,99.0059,VALID,-0.0339617,VALID,20.2856,VALID,75,VALID,0.0556066,
2003-01-15, 00:29:00,VALID,919.965,VALID,0,VALID,99.0148,VALID,-0.0169808,VALID,20.292,VALID,75,VALID,0.0643939,
2003-01-15, 00:30:00,VALID,919.969,VALID,0,VALID,99.0148,VALID,-0.0169808,VALID,20.2953,VALID,76,VALID,0.0746528,
2003-01-15, 00:31:00,VALID,919.967,VALID,0,VALID,98.9792,VALID,-0.0169808,VALID,20.3152,VALID,77,VALID,0.0535714,
2003-01-15, 00:32:00,VALID,919.972,VALID,0,VALID,98.9652,VALID,-0.0169808,VALID,20.3152,VALID,85,VALID,0.183838,
2003-01-15, 00:33:00,VALID,919.975,VALID,0,VALID,98.8889,VALID,-0.0339617,VALID,20.3147,VALID,168,VALID,0.48329,
2003-01-15, 00:34:00,VALID,919.958,VALID,0,VALID,98.8406,VALID,-0.0169808,VALID,20.3017,VALID,173,VALID,0.518527,
2003-01-15, 00:35:00,VALID,919.948,VALID,0,VALID,98.8215,VALID,0,VALID,20.2751,VALID,173,VALID,0.347064,
2003-01-15, 00:36:00,VALID,919.945,VALID,0,VALID,98.852,VALID,-0.0169808,VALID,20.2885,VALID,176,VALID,0.11263,
2003-01-15, 00:37:00,VALID,919.938,VALID,0,VALID,98.8329,VALID,-0.0169808,VALID,20.2883,VALID,168,VALID,0.242634,
2003-01-15, 00:38:00,VALID,919.938,VALID,0,VALID,98.7732,VALID,0.0509425,VALID,20.2751,VALID,152,VALID,0.500488,
2003-01-15, 00:39:00,VALID,919.937,VALID,0,VALID,98.8049,VALID,0.0509425,VALID,20.2711,VALID,150,VALID,0.358073,
2003-01-15, 00:40:00,VALID,919.934,VALID,0,VALID,98.7744,VALID,0.0679233,VALID,20.2649,VALID,154,VALID,0.311384,
2003-01-15, 00:41:00,VALID,919.931,VALID,0,VALID,98.7706,VALID,0.0509425,VALID,20.2687,VALID,154,VALID,0.0194129,
2003-01-15, 00:42:00,VALID,919.927,VALID,0,VALID,98.8037,VALID,0.0509425,VALID,20.2485,VALID,154,VALID,0.00108507,
2003-01-15, 00:43:00,VALID,919.919,VALID,0,VALID,98.8673,VALID,0.0509425,VALID,20.2644,VALID,154,VALID,0.0379464,
2003-01-15, 00:44:00,VALID,919.9,VALID,0,VALID,98.852,VALID,0.0849042,VALID,20.2908,VALID,154,VALID,0.0510254,
2003-01-15, 00:45:00,VALID,919.884,VALID,0,VALID,98.7325,VALID,0.0679233,VALID,20.2746,VALID,154,VALID,0.197049,
2003-01-15, 00:46:00,VALID,919.865,VALID,0,VALID,98.6613,VALID,0.0339617,VALID,20.242,VALID,140,VALID,0.38192,
2003-01-15, 00:47:00,VALID,919.832,VALID,0,VALID,98.6524,VALID,0.0169808,VALID,20.2264,VALID,133,VALID,0.316288,
2003-01-15, 00:48:00,VALID,919.819,VALID,0,VALID,98.6905,VALID,0.0339617,VALID,20.2169,VALID,95,VALID,0.251953,
2003-01-15, 00:49:00,VALID,919.805,VALID,0,VALID,98.824,VALID,0.0679233,VALID,20.2266,VALID,94,VALID,0.0270089,
2003-01-15, 00:50:00,VALID,919.78,VALID,0,VALID,98.7744,VALID,0.0509425,VALID,20.2326,VALID,94,VALID,0.182129,
2003-01-15, 00:51:00,VALID,919.759,VALID,0,VALID,98.7592,VALID,0.0339617,VALID,20.2124,VALID,94,VALID,0.0329861,
2003-01-15, 00:52:00,VALID,919.752,VALID,0,VALID,98.824,VALID,0.0679233,VALID,20.2328,VALID,81,VALID,0.132589,
2003-01-15, 00:53:00,VALID,919.726,VALID,0,VALID,98.8622,VALID,-0.0339617,VALID,20.2366,VALID,48,VALID,0.30303,
2003-01-15, 00:54:00,VALID,919.703,VALID,0,VALID,98.8749,VALID,-0.0169808,VALID,20.2495,VALID,48,VALID,0.191406,
2003-01-15, 00:55:00,VALID,919.673,VALID,0,VALID,98.8177,VALID,0,VALID,20.2664,VALID,48,VALID,0.252455,
2003-01-15, 00:56:00,VALID,919.655,VALID,0,VALID,98.6981,VALID,-0.0169808,VALID,20.2465,VALID,48,VALID,0.182617,
2003-01-15, 00:57:00,VALID,919.618,VALID,0,VALID,98.6905,VALID,-0.0339617,VALID,20.2239,VALID,48,VALID,0,
2003-01-15, 00:58:00,VALID,919.611,VALID,0,VALID,98.7312,VALID,0,VALID,20.2311,VALID,48,VALID,0,
2003-01-15, 00:59:00,VALID,919.595,VALID,0,VALID,98.7681,VALID,-0.0339617,VALID,20.2336,VALID,48,VALID,0.0388258,
2003-01-15, 01:00:00,VALID,919.586,VALID,0,VALID,98.7325,VALID,0,VALID,20.2401,VALID,268,VALID,0.318793,
2003-01-15, 01:01:00,VALID,919.583,VALID,0,VALID,98.6803,VALID,-0.0339617,VALID,20.2304,VALID,246,VALID,0.456473,
2003-01-15, 01:02:00,VALID,919.584,VALID,0,VALID,98.674,VALID,-0.0509425,VALID,20.2239,VALID,246,VALID,0.541016,
2003-01-15, 01:03:00,VALID,919.567,VALID,0,VALID,98.6969,VALID,-0.0679233,VALID,20.2344,VALID,246,VALID,0.382161,
2003-01-15, 01:04:00,VALID,919.549,VALID,0,VALID,98.6867,VALID,-0.0339617,VALID,20.218,VALID,246,VALID,0.322098,
2003-01-15, 01:05:00,VALID,919.544,VALID,0,VALID,98.7541,VALID,0,VALID,20.2177,VALID,246,VALID,0.0215436,
2003-01-15, 01:06:00,VALID,919.527,VALID,0,VALID,98.7935,VALID,0,VALID,20.2306,VALID,260,VALID,0.268012,
2003-01-15, 01:07:00,VALID,919.524,VALID,0,VALID,98.7503,VALID,-0.0509425,VALID,20.211,VALID,273,VALID,0.352455,
2003-01-15, 01:08:00,VALID,919.517,VALID,0,VALID,98.7312,VALID,0.0679233,VALID,20.1943,VALID,275,VALID,0.209717,
2003-01-15, 01:09:00,VALID,919.514,VALID,0,VALID,98.7515,VALID,0.0509425,VALID,20.1811,VALID,275,VALID,0.125868,
2003-01-15, 01:10:00,VALID,919.504,VALID,0,VALID,98.7668,VALID,0.0339617,VALID,20.1744,VALID,275,VALID,0,
2003-01-15, 01:11:00,VALID,919.506,VALID,0,VALID,98.8291,VALID,0.0679233,VALID,20.1938,VALID,275,VALID,0.00118371,
2003-01-15, 01:12:00,VALID,919.502,VALID,0,VALID,98.8787,VALID,0.0849042,VALID,20.2194,VALID,275,VALID,0,
2003-01-15, 01:13:00,VALID,919.495,VALID,0,VALID,98.9308,VALID,0.0679233,VALID,20.2423,VALID,276,VALID,0.000892857,
2003-01-15, 01:14:00,VALID,919.481,VALID,0,VALID,98.9931,VALID,0.0849042,VALID,20.2674,VALID,284,VALID,0.154541,
2003-01-15, 01:15:00,VALID,919.476,VALID,0,VALID,99.0338,VALID,0.0679233,VALID,20.3196,VALID,287,VALID,0.0638021,
2003-01-15, 01:16:00,VALID,919.468,VALID,0,VALID,99.0008,VALID,0.0849042,VALID,20.3487,VALID,287,VALID,0,
2003-01-15, 01:17:00,VALID,919.442,VALID,0,VALID,98.9525,VALID,0.0679233,VALID,20.3325,VALID,285,VALID,0.0250947,
2003-01-15, 01:18:00,VALID,919.44,VALID,0,VALID,98.866,VALID,0.0849042,VALID,20.3029,VALID,254,VALID,0.269097,
2003-01-15, 01:19:00,VALID,919.425,VALID,0,VALID,98.8469,VALID,0.101885,VALID,20.2897,VALID,212,VALID,0.166295,
2003-01-15, 01:20:00,VALID,919.409,VALID,0,VALID,98.8253,VALID,0.101885,VALID,20.29,VALID,173,VALID,0.529785,
2003-01-15, 01:21:00,VALID,919.389,VALID,0,VALID,98.7375,VALID,0.0849042,VALID,20.2706,VALID,180,VALID,0.868707,
2003-01-15, 01:22:00,VALID,919.376,VALID,0,VALID,98.6803,VALID,0.101885,VALID,20.248,VALID,165,VALID,0.784152,
2003-01-15, 01:23:00,VALID,919.364,VALID,0,VALID,98.646,VALID,0.0339617,VALID,20.2296,VALID,164,VALID,0.567235,
2003-01-15, 01:24:00,VALID,919.359,VALID,0,VALID,98.6498,VALID,-0.0339617,VALID,20.2274,VALID,152,VALID,0.404948,
2003-01-15, 01:25:00,VALID,919.355,VALID,0,VALID,98.6269,VALID,-0.0169808,VALID,20.2209,VALID,163,VALID,0.606696,
2003-01-15, 01:26:00,VALID,919.355,VALID,0,VALID,98.6307,VALID,-0.0169808,VALID,20.1948,VALID,154,VALID,0.489258,
2003-01-15, 01:27:00,VALID,919.348,VALID,0,VALID,98.6969,VALID,-0.0169808,VALID,20.2075,VALID,167,VALID,0.220269,
2003-01-15, 01:28:00,VALID,919.352,VALID,0,VALID,98.7274,VALID,0,VALID,20.2107,VALID,158,VALID,0.332589,
2003-01-15, 01:29:00,VALID,919.351,VALID,0,VALID,98.7121,VALID,0,VALID,20.21,VALID,153,VALID,0.295455,
2003-01-15, 01:30:00,VALID,919.347,VALID,0,VALID,98.7134,VALID,0,VALID,20.2234,VALID,146,VALID,0.59592,
2003-01-15, 01:31:00,VALID,919.351,VALID,0,VALID,98.7147,VALID,0.0169808,VALID,20.2234,VALID,162,VALID,0.659152,
2003-01-15, 01:32:00,VALID,919.351,VALID,0,VALID,98.7134,VALID,0.0169808,VALID,20.2204,VALID,130,VALID,0.608154,
2003-01-15, 01:33:00,VALID,919.346,VALID,0,VALID,98.749,VALID,-0.0169808,VALID,20.2013,VALID,105,VALID,0.240668,
2003-01-15, 01:34:00,VALID,919.341,VALID,0,VALID,98.7617,VALID,0,VALID,20.2008,VALID,134,VALID,0.40692,
2003-01-15, 01:35:00,VALID,919.328,VALID,0,VALID,98.7693,VALID,0,VALID,20.2043,VALID,147,VALID,0.363163,
2003-01-15, 01:36:00,VALID,919.321,VALID,0,VALID,98.8456,VALID,0,VALID,20.201,VALID,71,VALID,0.450304,
2003-01-15, 01:37:00,VALID,919.326,VALID,0,VALID,98.8673,VALID,0,VALID,20.2272,VALID,72,VALID,0.656696,
2003-01-15, 01:38:00,VALID,919.302,VALID,0,VALID,98.8342,VALID,0,VALID,20.2075,VALID,63,VALID,0.70874,
2003-01-15, 01:39:00,VALID,919.286,VALID,0,VALID,98.8431,VALID,0.0169808,VALID,20.1973,VALID,62,VALID,0.60395,
2003-01-15, 01:40:00,VALID,919.277,VALID,0,VALID,98.8075,VALID,0.0169808,VALID,20.1814,VALID,57,VALID,0.679018,
2003-01-15, 01:41:00,VALID,919.262,VALID,0,VALID,98.8431,VALID,0,VALID,20.1712,VALID,37,VALID,0.578362,
2003-01-15, 01:42:00,VALID,919.269,VALID,0,VALID,98.8494,VALID,0,VALID,20.1685,VALID,53,VALID,0.350477,
2003-01-15, 01:43:00,VALID,919.235,VALID,0,VALID,98.8062,VALID,-0.0169808,VALID,20.1854,VALID,68,VALID,0.46317,
2003-01-15, 01:44:00,VALID,919.22,VALID,0,VALID,98.6943,VALID,0,VALID,20.1332,VALID,75,VALID,0.608887,
2003-01-15, 01:45:00,VALID,919.191,VALID,0,VALID,98.6346,VALID,-0.0169808,VALID,20.0949,VALID,92,VALID,0.653646,
2003-01-15, 01:46:00,VALID,919.179,VALID,0,VALID,98.7134,VALID,-0.0169808,VALID,20.085,VALID,81,VALID,0.398884,
2003-01-15, 01:47:00,VALID,919.166,VALID,0,VALID,98.7019,VALID,0,VALID,20.0688,VALID,69,VALID,0.492898,
2003-01-15, 01:48:00,VALID,919.165,VALID,0,VALID,98.7757,VALID,0,VALID,20.0653,VALID,41,VALID,0.308594,
2003-01-15, 01:49:00,VALID,919.155,VALID,0,VALID,98.763,VALID,0,VALID,20.0522,VALID,46,VALID,0.182143,
2003-01-15, 01:50:00,VALID,919.138,VALID,0,VALID,98.7528,VALID,0,VALID,20.043,VALID,93,VALID,0.275879,
2003-01-15, 01:51:00,VALID,919.142,VALID,0,VALID,98.7973,VALID,-0.0169808,VALID,20.0236,VALID,96,VALID,0.208116,
2003-01-15, 01:52:00,VALID,919.139,VALID,0,VALID,98.8202,VALID,0,VALID,20.03,VALID,96,VALID,0.0136161,
2003-01-15, 01:53:00,VALID,919.137,VALID,0,VALID,98.8901,VALID,0,VALID,20.0273,VALID,96,VALID,0.00355114,
2003-01-15, 01:54:00,VALID,919.135,VALID,0,VALID,98.9397,VALID,0,VALID,20.0397,VALID,96,VALID,0.0121528,
2003-01-15, 01:55:00,VALID,919.124,VALID,0,VALID,98.9334,VALID,0,VALID,20.0405,VALID,96,VALID,0,
2003-01-15, 01:56:00,VALID,919.113,VALID,0,VALID,98.9639,VALID,-0.0169808,VALID,20.0427,VALID,96,VALID,0,
2003-01-15, 01:57:00,VALID,919.095,VALID,0,VALID,98.9499,VALID,0,VALID,20.0427,VALID,96,VALID,0.0605469,
2003-01-15, 01:58:00,VALID,919.079,VALID,0,VALID,98.9652,VALID,0,VALID,20.0432,VALID,96,VALID,0,
2003-01-15, 01:59:00,VALID,919.069,VALID,0,VALID,98.9804,VALID,-0.0169808,VALID,20.0596,VALID,110,VALID,0.30161,
2003-01-15, 02:00:00,VALID,919.059,VALID,0,VALID,98.9474,VALID,-0.0169808,VALID,20.0427,VALID,127,VALID,0.0967882,
2003-01-15, 02:01:00,VALID,919.049,VALID,0,VALID,99.0046,VALID,-0.0169808,VALID,20.0564,VALID,127,VALID,0,
2003-01-15, 02:02:00,VALID,919.046,VALID,0,VALID,99.0326,VALID,-0.0339617,VALID,20.0527,VALID,127,VALID,0,
2003-01-15, 02:03:00,VALID,919.036,VALID,0,VALID,99.058,VALID,-0.0509425,VALID,20.082,VALID,85,VALID,0.179905,
2003-01-15, 02:04:00,VALID,919.043,VALID,0,VALID,99.0707,VALID,-0.0169808,VALID,20.0949,VALID,42,VALID,0.433929,
2003-01-15, 02:05:00,VALID,919.025,VALID,0,VALID,99.0694,VALID,0,VALID,20.1046,VALID,41,VALID,0.382339,
2003-01-15, 02:06:00,VALID,919.016,VALID,0,VALID,99.0682,VALID,-0.0339617,VALID,20.1248,VALID,35,VALID,0.32487,
2003-01-15, 02:07:00,VALID,919.004,VALID,0,VALID,99.0173,VALID,-0.0339617,VALID,20.0919,VALID,35,VALID,0.128795,
2003-01-15, 02:08:00,VALID,918.997,VALID,0,VALID,98.9957,VALID,-0.0169808,VALID,20.0686,VALID,35,VALID,0,
2003-01-15, 02:09:00,VALID,918.977,VALID,0,VALID,99.0351,VALID,0,VALID,20.0949,VALID,35,VALID,0,
2003-01-15, 02:10:00,VALID,918.964,VALID,0,VALID,99.0198,VALID,0,VALID,20.0914,VALID,35,VALID,0,
2003-01-15, 02:11:00,VALID,918.94,VALID,0,VALID,99.0122,VALID,-0.0849042,VALID,20.0989,VALID,35,VALID,0,
2003-01-15, 02:12:00,VALID,918.916,VALID,0,VALID,98.9728,VALID,-0.0169808,VALID,20.0825,VALID,35,VALID,0,
2003-01-15, 02:13:00,VALID,918.899,VALID,0,VALID,98.9219,VALID,-0.0849042,VALID,20.0825,VALID,35,VALID,0.00401786,
2003-01-15, 02:14:00,VALID,918.878,VALID,0,VALID,98.9779,VALID,-0.0509425,VALID,20.0795,VALID,37,VALID,0.317139,
2003-01-15, 02:15:00,VALID,918.861,VALID,0,VALID,98.9525,VALID,-0.0679233,VALID,20.0663,VALID,45,VALID,0.654948,
2003-01-15, 02:16:00,VALID,918.85,VALID,0,VALID,98.8889,VALID,-0.0509425,VALID,20.0467,VALID,47,VALID,0.677009,
2003-01-15, 02:17:00,VALID,918.817,VALID,0,VALID,98.8367,VALID,-0.0509425,VALID,20.0338,VALID,53,VALID,0.614583,
2003-01-15, 02:18:00,VALID,918.813,VALID,0,VALID,98.8075,VALID,0,VALID,19.998,VALID,58,VALID,0.47526,
2003-01-15, 02:19:00,VALID,918.811,VALID,0,VALID,98.8316,VALID,-0.0169808,VALID,19.9619,VALID,58,VALID,0.483482,
2003-01-15, 02:20:00,VALID,918.802,VALID,0,VALID,98.9168,VALID,0,VALID,19.9721,VALID,54,VALID,0.240967,
2003-01-15, 02:21:00,VALID,918.789,VALID,0,VALID,98.9817,VALID,0,VALID,19.991,VALID,25,VALID,0.302083,
2003-01-15, 02:22:00,VALID,918.781,VALID,0,VALID,98.9931,VALID,0,VALID,20.0074,VALID,24,VALID,0.301786,
2003-01-15, 02:23:00,VALID,918.751,VALID,0,VALID,99.0389,VALID,-0.0169808,VALID,20.0203,VALID,22,VALID,0.197917,
2003-01-15, 02:24:00,VALID,918.726,VALID,0,VALID,98.9499,VALID,0,VALID,19.9977,VALID,20,VALID,0.335069,
2003-01-15, 02:25:00,VALID,918.703,VALID,0,VALID,98.894,VALID,-0.0169808,VALID,19.9659,VALID,19,VALID,0.196875,
2003-01-15, 02:26:00,VALID,918.687,VALID,0,VALID,98.8978,VALID,-0.0169808,VALID,19.9595,VALID,16,VALID,0.148438,
2003-01-15, 02:27:00,VALID,918.663,VALID,0,VALID,98.9258,VALID,-0.0169808,VALID,19.9659,VALID,15,VALID,0.126736,
2003-01-15, 02:28:00,VALID,918.64,VALID,0,VALID,98.9105,VALID,0,VALID,19.959,VALID,15,VALID,0.0319196,
2003-01-15, 02:29:00,VALID,918.627,VALID,0,VALID,98.9181,VALID,0,VALID,19.9428,VALID,15,VALID,0,
2003-01-15, 02:30:00,VALID,918.598,VALID,0,VALID,98.9486,VALID,-0.0169808,VALID,19.9587,VALID,15,VALID,0,
2003-01-15, 02:31:00,VALID,918.585,VALID,0,VALID,98.9474,VALID,0,VALID,19.9716,VALID,15,VALID,0.102455,
2003-01-15, 02:32:00,VALID,918.548,VALID,0,VALID,98.9512,VALID,0,VALID,19.9786,VALID,46,VALID,0.514648,
2003-01-15, 02:33:00,VALID,918.536,VALID,0,VALID,98.899,VALID,0,VALID,19.9818,VALID,54,VALID,0.893229,
2003-01-15, 02:34:00,VALID,918.512,VALID,0,VALID,98.7833,VALID,0,VALID,19.953,VALID,56,VALID,1.11763,
2003-01-15, 02:35:00,VALID,918.491,VALID,0,VALID,98.6981,VALID,0.0169808,VALID,19.9239,VALID,61,VALID,1.13068,
2003-01-15, 02:36:00,VALID,918.474,VALID,0,VALID,98.6905,VALID,0,VALID,19.8913,VALID,59,VALID,1.22027,
2003-01-15, 02:37:00,VALID,918.458,VALID,0,VALID,98.7032,VALID,-0.0169808,VALID,19.8687,VALID,62,VALID,1.18661,
2003-01-15, 02:38:00,VALID,918.44,VALID,0,VALID,98.6892,VALID,-0.0169808,VALID,19.8498,VALID,65,VALID,1.20581,
2003-01-15, 02:39:00,VALID,918.42,VALID,0,VALID,98.7019,VALID,-0.0339617,VALID,19.828,VALID,70,VALID,0.911675,
2003-01-15, 02:40:00,VALID,918.411,VALID,0,VALID,98.707,VALID,-0.0509425,VALID,19.7949,VALID,75,VALID,0.867411,
2003-01-15, 02:41:00,VALID,918.394,VALID,0,VALID,98.7668,VALID,-0.0849042,VALID,19.7827,VALID,74,VALID,1.00758,
2003-01-15, 02:42:00,VALID,918.392,VALID,0,VALID,98.8482,VALID,-0.0679233,VALID,19.7532,VALID,70,VALID,0.698351,
2003-01-15, 02:43:00,VALID,918.392,VALID,0,VALID,98.8978,VALID,-0.0679233,VALID,19.7467,VALID,76,VALID,0.71875,
2003-01-15, 02:44:00,VALID,918.368,VALID,0,VALID,98.955,VALID,-0.101885,VALID,19.7437,VALID,93,VALID,1.02734,
2003-01-15, 02:45:00,VALID,918.356,VALID,0,VALID,99.0046,VALID,-0.0849042,VALID,19.73,VALID,79,VALID,0.753906,
2003-01-15, 02:46:00,VALID,918.342,VALID,0,VALID,99.0237,VALID,-0.0849042,VALID,19.7273,VALID,87,VALID,0.789509,
2003-01-15, 02:47:00,VALID,918.348,VALID,0,VALID,99.0669,VALID,-0.0509425,VALID,19.7338,VALID,77,VALID,0.581913,
2003-01-15, 02:48:00,VALID,918.313,VALID,0,VALID,99.0898,VALID,-0.101885,VALID,19.734,VALID,102,VALID,0.586372,
2003-01-15, 02:49:00,VALID,918.318,VALID,0,VALID,99.0936,VALID,-0.0679233,VALID,19.7276,VALID,124,VALID,0.753571,
2003-01-15, 02:50:00,VALID,918.298,VALID,0,VALID,99.1152,VALID,-0.0679233,VALID,19.7082,VALID,126,VALID,0.790527,
2003-01-15, 02:51:00,VALID,918.308,VALID,0,VALID,99.0834,VALID,-0.101885,VALID,19.6786,VALID,132,VALID,0.947266,
2003-01-15, 02:52:00,VALID,918.306,VALID,0,VALID,99.1178,VALID,-0.101885,VALID,19.6691,VALID,129,VALID,0.9625,
2003-01-15, 02:53:00,VALID,918.307,VALID,0,VALID,99.1343,VALID,-0.0339617,VALID,19.6592,VALID,86,VALID,1.2268,
2003-01-15, 02:54:00,VALID,918.299,VALID,0,VALID,99.1559,VALID,0,VALID,19.6388,VALID,94,VALID,1.14041,
2003-01-15, 02:55:00,VALID,918.29,VALID,0,VALID,99.1686,VALID,0.0169808,VALID,19.6291,VALID,94,VALID,0.827232,
2003-01-15, 02:56:00,VALID,918.286,VALID,0,VALID,99.1724,VALID,0.0169808,VALID,19.6329,VALID,115,VALID,1.02954,
2003-01-15, 02:57:00,VALID,918.278,VALID,0,VALID,99.2055,VALID,0,VALID,19.607,VALID,121,VALID,1.04514,
2003-01-15, 02:58:00,VALID,918.272,VALID,0,VALID,99.2284,VALID,0,VALID,19.61,VALID,117,VALID,0.176563,
2003-01-15, 02:59:00,VALID,918.271,VALID,0,VALID,99.2487,VALID,0.0169808,VALID,19.6167,VALID,138,VALID,0.268939,
2003-01-15, 03:00:00,VALID,918.277,VALID,0,VALID,99.2754,VALID,0.0509425,VALID,19.6259,VALID,123,VALID,0.79145,
2003-01-15, 03:01:00,VALID,918.256,VALID,0,VALID,99.2729,VALID,0,VALID,19.6257,VALID,136,VALID,0.992634,
2003-01-15, 03:02:00,VALID,918.26,VALID,0,VALID,99.2818,VALID,0.0339617,VALID,19.6393,VALID,141,VALID,0.712158,
2003-01-15, 03:03:00,VALID,918.257,VALID,0,VALID,99.2869,VALID,0,VALID,19.6326,VALID,151,VALID,1.09701,
2003-01-15, 03:04:00,VALID,918.255,VALID,0,VALID,99.2869,VALID,0,VALID,19.616,VALID,133,VALID,1.05112,
2003-01-15, 03:05:00,VALID,918.246,VALID,0,VALID,99.2793,VALID,0,VALID,19.6189,VALID,123,VALID,0.749763,
2003-01-15, 03:06:00,VALID,918.238,VALID,0,VALID,99.2907,VALID,0.0679233,VALID,19.6127,VALID,128,VALID,0.667318,
2003-01-15, 03:07:00,VALID,918.233,VALID,0,VALID,99.2932,VALID,0.0169808,VALID,19.6033,VALID,124,VALID,0.596429,
2003-01-15, 03:08:00,VALID,918.238,VALID,0,VALID,99.2678,VALID,0.0339617,VALID,19.5837,VALID,117,VALID,0.888672,
2003-01-15, 03:09:00,VALID,918.221,VALID,0,VALID,99.264,VALID,0.0339617,VALID,19.5777,VALID,124,VALID,0.574436,
2003-01-15, 03:10:00,VALID,918.221,VALID,0,VALID,99.2487,VALID,0.0169808,VALID,19.5749,VALID,139,VALID,0.680836,
2003-01-15, 03:11:00,VALID,918.221,VALID,0,VALID,99.2462,VALID,0.0169808,VALID,19.5648,VALID,136,VALID,0.73982,
2003-01-15, 03:12:00,VALID,918.23,VALID,0,VALID,99.2335,VALID,0,VALID,19.5682,VALID,126,VALID,0.400608,
2003-01-15, 03:13:00,VALID,918.238,VALID,0,VALID,99.1941,VALID,0.0679233,VALID,19.5414,VALID,123,VALID,0.510268,
2003-01-15, 03:14:00,VALID,918.242,VALID,0,VALID,99.1406,VALID,0.0509425,VALID,19.5387,VALID,118,VALID,0.497803,
2003-01-15, 03:15:00,VALID,918.249,VALID,0,VALID,99.0694,VALID,0.0169808,VALID,19.5389,VALID,121,VALID,0.681424,
2003-01-15, 03:16:00,VALID,918.25,VALID,0,VALID,98.9944,VALID,0.0339617,VALID,19.529,VALID,110,VALID,0.672768,
2003-01-15, 03:17:00,VALID,918.224,VALID,0,VALID,98.8787,VALID,0.0679233,VALID,19.526,VALID,103,VALID,0.642045,
2003-01-15, 03:18:00,VALID,918.223,VALID,0,VALID,98.7693,VALID,0.0339617,VALID,19.5064,VALID,118,VALID,0.80599,
2003-01-15, 03:19:00,VALID,918.221,VALID,0,VALID,98.632,VALID,0.0679233,VALID,19.4999,VALID,113,VALID,0.784375,
2003-01-15, 03:20:00,VALID,918.229,VALID,0,VALID,98.5023,VALID,0.0679233,VALID,19.4902,VALID,124,VALID,0.450195,
2003-01-15, 03:21:00,VALID,918.243,VALID,0,VALID,98.4235,VALID,0.0339617,VALID,19.5034,VALID,147,VALID,0.626302,
2003-01-15, 03:22:00,VALID,918.256,VALID,0,VALID,98.2912,VALID,0.0679233,VALID,19.4969,VALID,139,VALID,0.503348,
2003-01-15, 03:23:00,VALID,918.267,VALID,0,VALID,98.1971,VALID,0.0509425,VALID,19.5006,VALID,147,VALID,0.67661,
2003-01-15, 03:24:00,VALID,918.269,VALID,0,VALID,98.1119,VALID,0.0509425,VALID,19.5073,VALID,139,VALID,0.348307,
2003-01-15, 03:25:00,VALID,918.259,VALID,0,VALID,98.0077,VALID,0.0169808,VALID,19.4969,VALID,150,VALID,0.573438,
2003-01-15, 03:26:00,VALID,918.247,VALID,0,VALID,97.953,VALID,0.0169808,VALID,19.4905,VALID,150,VALID,0.573975,
2003-01-15, 03:27:00,VALID,918.226,VALID,0,VALID,97.9924,VALID,0,VALID,19.5006,VALID,150,VALID,0.7398,
2003-01-15, 03:28:00,VALID,918.226,VALID,0,VALID,97.9924,VALID,0.0169808,VALID,19.5098,VALID,131,VALID,0.373437,
2003-01-15, 03:29:00,VALID,918.223,VALID,0,VALID,98.0229,VALID,0,VALID,19.523,VALID,134,VALID,0.00473485,
2003-01-15, 03:30:00,VALID,918.226,VALID,0,VALID,98.0242,VALID,0.0169808,VALID,19.5297,VALID,134,VALID,0.0746528,
2003-01-15, 03:31:00,VALID,918.222,VALID,0,VALID,98.0344,VALID,0.0339617,VALID,19.5225,VALID,134,VALID,0.00178571,
2003-01-15, 03:32:00,VALID,918.232,VALID,0,VALID,98.0801,VALID,0.0339617,VALID,19.5424,VALID,134,VALID,0,
2003-01-15, 03:33:00,VALID,918.232,VALID,0,VALID,98.0064,VALID,0.0169808,VALID,19.559,VALID,134,VALID,0,
2003-01-15, 03:34:00,VALID,918.235,VALID,0,VALID,98.0229,VALID,0,VALID,19.5454,VALID,134,VALID,0,